20141110,1
20141111,1
20141112,1
20141113,1
20141114,1
20141117,1
20141118,1
20141119,1
20141120,1
20141121,1
20141125,1
20141126,1
20141127,1
20141128,1
20141201,1
20141202,1
20141203,1
20141204,1
20141205,1
20141208,1
20141209,1
20141210,1
20141211,1
20141212,1
20141215,1
20141216,1
20141217,1
20141218,1
20141219,1
20141222,1
20141224,1
20141225,1
20141226,1
20141229,1
20141230,1
20150105,1
20150106,1
20150107,1
20150108,1
20150109,1
20150113,1
20150114,1
20150115,1
20150116,1
20150119,1
20150120,1
20150121,1
20150122,1
20150123,1
20150126,1
20150127,1
20150128,1
20150129,1
20150130,1
20150202,1
20150203,1
20150204,1
20150205,1
20150206,1
20150209,1
20150210,1
20150212,1
20150213,9
20150216,26
20150217,45
20150218,54
20150219,67
20150220,70
20150223,81
20150224,86
20150225,103
20150226,112
20150227,152
20150302,168
20150303,184
20150304,190
20150305,208
20150306,217
20150309,221
20150310,226
20150311,239
20150312,246
20150313,264
20150316,302
20150317,307
20150318,324
20150319,359
20150320,378
20150323,400
20150324,406
20150325,424
20150326,430
20150327,455
20150330,462
20150331,465
20150401,481
20150402,482
20150403,481
20150406,482
20150407,486
20150408,488
20150409,488
20150410,490
20150413,493
20150414,497
20150415,506
20150416,515
20150417,519
20150420,525
20150421,543
20150422,544
20150423,551
20150424,558
20150427,574
20150428,580
20150430,580
20150501,580
20150507,582
20150508,589
20150511,602
20150512,600
20150513,600
20150514,610
20150515,625
20150518,628
20150519,633
20150520,646
20150521,659
20150522,661
20150525,662
20150526,670
20150527,680
20150528,695
20150529,704
20150601,712
20150602,726
20150603,727
20150604,740
20150605,755
20150608,768
20150609,773
20150610,780
20150611,787
20150612,791
20150615,801
20150616,812
20150617,819
20150618,829
20150619,841
20150622,850
20150623,852
20150624,862
20150625,889
20150626,892
20150629,898
20150630,946
20150701,956
20150702,956
20150703,959
20150706,984
20150707,1021
20150708,1043
20150709,1049
20150710,1048
20150713,1065
20150714,1068
20150715,1072
20150716,1084
20150717,1091
20150721,1102
20150722,1110
20150723,1134
20150724,1144
20150727,1202
20150728,1236
20150729,1239
20150730,1248
20150731,1262
20150803,1295
20150804,1305
20150805,1310
20150806,1316
20150807,1317
20150810,1321
20150811,1324
20150812,1330
20150813,1341
20150814,1346
20150817,1354
20150818,1365
20150819,1364
20150820,1370
20150821,1378
20150824,1368
20150825,1364
20150826,1372
20150827,1385
20150828,1396
20150831,1404
20150901,1412
20150902,1420
20150903,1437
20150904,1435
20150907,1458
20150908,1462
20150909,1521
20150910,1531
20150911,1537
20150914,1545
20150915,1553
20150916,1562
20150917,1577
20150918,1583
20150924,1607
20150925,1617
20150928,1635
20150929,1678
20150930,1737
20151001,1808
20151002,1825
20151005,1839
20151006,1842
20151007,1844
20151008,1846
20151009,1885
20151013,1886
20151014,1887
20151015,1895
20151016,1899
20151019,1899
20151020,1896
20151021,1899
20151022,1904
20151023,1920
20151026,1921
20151027,1918
20151028,1921
20151029,1945
20151030,1963
20151102,1974
20151104,2007
20151105,2032
20151106,2051
20151109,2080
20151110,2174
20151111,2200
20151112,2222
20151113,2247
20151116,2267
20151117,2287
20151118,2313
20151119,2367
20151120,2386
20151124,2414
20151125,2449
20151126,2482
20151127,2514
20151130,2559
20151201,2586
20151202,2612
20151203,2624
20151204,2659
20151207,2692
20151208,2713
20151209,2754
20151210,2788
20151211,2812
20151214,2836
20151215,2868
20151216,2921
20151217,2953
20151218,2987
20151221,3019
20151222,3113
20151224,3137
20151225,3166
20151228,3195
20151229,3252
20151230,3284
20160104,3328
20160105,3354
20160106,3387
20160107,3399
20160108,3397
20160112,3396
20160113,3451
20160114,3461
20160115,3475
20160118,3531
20160119,3544
20160120,3558
20160121,3578
20160122,3715
20160125,3762
20160126,3756
20160127,3806
20160128,3857
20160129,3943
20160201,4005
20160202,3978
20160203,3972
20160204,3994
20160205,4012
20160208,4027
20160209,4046
20160210,4066
20160212,4136
20160215,4155
20160216,4195
20160217,4216
20160218,4235
20160219,4313
20160222,4334
20160223,4369
20160224,4396
20160225,4425
20160226,4453
20160229,4479
20160301,4525
20160302,4554
20160303,4570
20160304,4604
20160307,4678
20160308,4725
20160309,4760
20160310,4756
20160311,4797
20160314,4819
20160315,4845
20160316,4865
20160317,4912
20160318,4947
20160322,5034
20160323,5079
20160324,5168
20160325,5249
20160328,5298
20160329,5372
20160330,5493
20160331,5657
20160401,5914
20160404,5953
20160405,5975
20160406,5987
20160407,6018
20160408,6050
20160411,6067
20160412,6102
20160413,6136
20160414,6167
20160415,6209
20160418,6245
20160419,6305
20160420,6352
20160421,6409
20160422,6488
20160425,6528
20160426,6648
20160427,6687
20160428,6778
20160502,7013
20160506,7096
20160509,7145
20160510,7187
20160511,7249
20160512,7315
20160513,7329
20160516,7427
20160517,7489
20160518,7547
20160519,7619
20160520,7725
20160523,7921
20160524,8037
20160525,8172
20160526,8319
20160527,8407
20160530,8588
20160531,8706
20160601,8874
20160602,8966
20160603,9066
20160606,9141
20160607,9224
20160608,9401
20160609,9535
20160610,9640
20160613,9721
20160614,9846
20160615,9944
20160616,10045
20160617,10108
20160620,10208
20160621,10299
20160622,10411
20160623,10529
20160624,10685
20160627,10817
20160628,10995
20160629,11118
20160630,11255
20160701,11537
20160704,11645
20160705,11755
20160706,11919
20160707,11958
20160708,12336
20160711,12450
20160712,12557
20160713,12644
20160714,12719
20160715,12853
20160719,13002
20160720,13180
20160721,13434
20160722,13552
20160725,13751
20160726,13965
20160727,14258
20160728,14503
20160729,14787
20160801,15217
20160802,15261
20160803,15443
20160804,15526
20160805,15625
20160808,15684
20160809,15818
20160810,15932
20160812,16052
20160815,16089
20160816,16161
20160817,16267
20160818,16309
20160819,16475
20160822,16560
20160823,16732
20160824,16826
20160825,16922
20160826,17013
20160829,17269
20160830,17468
20160831,17618
20160901,17719
20160902,17752
20160905,17828
20160906,18012
20160907,18135
20160908,18157
20160909,18172
20160912,18241
20160913,18332
20160914,18377
20160915,18460
20160916,18584
20160920,18711
20160921,18810
20160923,19014
20160926,19151
20160927,19246
20160928,19381
20160929,19482
20160930,19603
20161003,19750
20161004,19754
20161005,19752
20161006,19785
20161007,19780
20161011,19793
20161012,19842
20161013,19936
20161014,19977
20161017,20041
20161018,20077
20161019,20159
20161020,20174
20161021,20185
20161024,20333
20161025,20421
20161026,20525
20161027,20613
20161028,20678
20161031,20794
20161101,20885
20161102,20947
20161104,20963
20161107,20993
20161108,21071
20161109,21088
20161110,21203
20161111,21172
20161114,21191
20161115,21193
20161116,21248
20161117,21385
20161118,21356
20161121,21439
20161122,21532
20161124,21595
20161125,21670
20161128,21815
20161129,21984
20161130,22087
20161201,22265
20161202,22315
20161205,22374
20161206,22422
20161207,22541
20161208,22667
20161209,22627
20161212,22675
20161213,22830
20161214,22900
20161215,22944
20161216,23105
20161219,23133
20161220,23524
20161221,23751
20161222,23900
20161226,24015
20161227,24286
20161228,24554
20161229,24931
20161230,25248
20170104,25542
20170105,25648
20170106,25738
20170110,25711
20170111,25844
20170112,25963
20170113,26117
20170116,26122
20170117,26205
20170118,26356
20170119,26505
20170120,26759
20170123,27051
20170124,27296
20170125,27533
20170126,27761
20170127,27866
20170130,28087
20170131,28430
20170201,28789
20170202,28832
20170203,29075
20170206,29243
20170207,29481
20170208,29554
20170209,29681
20170210,29940
20170213,30151
20170214,30292
20170215,30520
20170216,30701
20170217,30920
20170220,31061
20170221,31286
20170222,31482
20170223,31729
20170224,31951
20170227,32111
20170228,32525
20170301,32748
20170302,32932
20170303,33007
20170306,33183
20170307,33278
20170308,33407
20170309,34079
20170310,34146
20170313,34419
20170314,34572
20170315,34673
20170316,34940
20170317,35186
20170321,35462
20170322,35593
20170323,35682
20170324,35785
20170327,35926
20170328,36359
20170329,36581
20170330,36727
20170331,36994
20170403,37353
20170404,37449
20170405,37524
20170406,37546
20170407,37628
20170410,37647
20170411,37747
20170412,37711
20170413,37704
20170414,37741
20170417,38002
20170418,38061
20170419,38200
20170420,38248
20170421,38420
20170424,38530
20170425,38666
20170426,38776
20170427,38950
20170428,39028
20170501,39150
20170502,39317
20170508,39620
20170509,39689
20170510,39729
20170511,39722
20170512,39855
20170515,39971
20170516,40024
20170517,40191
20170518,40312
20170519,40489
20170522,40522
20170523,40679
20170524,40812
20170525,40933
20170526,41052
20170529,41164
20170530,41281
20170531,41447
20170601,41747
20170602,41865
20170605,42029
20170606,42073
20170607,42218
20170608,42156
20170609,42269
20170612,42487
20170613,42655
20170614,42729
20170615,43047
20170616,43247
20170619,43396
20170620,43548
20170621,43613
20170622,43729
20170623,43971
20170626,44158
20170627,44417
20170628,44557
20170629,44141
20170630,44232
20170703,44453
20170704,44545
20170705,44621
20170706,44728
20170707,44722
20170710,44811
20170711,44989
20170712,44984
20170713,45154
20170714,45152
20170718,45350
20170719,45551
20170720,45716
20170721,45801
20170724,45836
20170725,46005
20170726,45997
20170727,46199
20170728,46396
20170731,46576
20170801,46840
20170802,46848
20170803,46931
20170804,47087
20170807,47163
20170808,47212
20170809,47248
20170810,47277
20170814,47151
20170815,47412
20170816,47605
20170817,47681
20170818,47800
20170821,47848
20170822,47898
20170823,48004
20170824,48022
20170825,48085
20170828,48192
20170829,48308
20170830,48365
20170831,48399
20170901,48493
20170904,48454
20170905,48364
20170906,48374
20170907,48547
20170908,48627
20170911,48640
20170912,48617
20170913,48693
20170914,48709
20170915,48761
20170919,48869
20170920,48896
20170921,48801
20170922,48943
20170925,49062
20170926,49450
20170927,49478
20170928,49570
20170929,50009
20171002,50330
20171003,50454
20171004,50458
20171005,50541
20171006,50458
20171010,50455
20171011,50488
20171012,50488
20171013,50501
20171016,50546
20171017,50526
20171018,50502
20171019,50543
20171020,50544
20171023,50543
20171024,50668
20171025,50565
20171026,50602
20171027,50856
20171030,50837
20171031,50885
20171101,50982
20171102,51302
20171106,51318
20171107,51463
20171108,51449
20171109,51282
20171110,50848
20171113,50780
20171114,50778
20171115,50598
20171116,50758
20171117,51221
20171120,51348
20171121,51463
20171122,51467
20171124,51492
20171127,51429
20171128,51610
20171129,51679
20171130,51622
20171201,51623
20171204,51467
20171205,51498
20171206,51411
20171207,51363
20171208,51376
20171211,51380
20171212,51418
20171213,51467
20171214,51365
20171215,51299
20171218,51152
20171219,51023
20171220,50895
20171221,50887
20171222,50966
20171225,51087
20171226,51122
20171227,51247
20171228,51084
20171229,51246
20180104,51470
20180105,51621
20180109,51733
20180110,51689
20180111,51704
20180112,51572
20180115,51660
20180116,51735
20180117,51749
20180118,51680
20180119,51718
20180122,51721
20180123,51940
20180124,52021
20180125,51932
20180126,51977
20180129,51984
20180130,52065
20180131,52150
20180201,52386
20180202,52442
20180205,52264
20180206,51755
20180207,51833
20180208,51988
20180209,51917
20180213,51934
20180214,51962
20180215,51947
20180216,52271
20180219,52576
20180220,52658
20180221,52694
20180222,52655
20180223,52892
20180226,53099
20180227,53273
20180228,53009
20180301,52994
20180302,52864
20180305,52892
20180306,53012
20180307,53105
20180308,53105
20180309,53105
20180312,53249
20180313,53435
20180314,53470
20180315,53630
20180316,53827
20180319,53728
20180320,53875
20180322,54115
20180323,53898
20180326,53966
20180327,54340
20180328,54579
20180329,54815
20180330,55180
20180402,55421
20180403,55571
20180404,55762
20180405,55904
20180406,55925
20180409,56090
20180410,56378
20180411,56337
20180412,56563
20180413,56667
20180416,56814
20180417,57099
20180418,57398
20180419,57458
20180420,57558
20180423,57839
20180424,58236
20180425,58525
20180426,58724
20180427,59136
20180501,59536
20180502,59544
20180507,59882
20180508,60212
20180509,60402
20180510,60604
20180511,60888
20180514,61173
20180515,61400
20180516,61459
20180517,61761
20180518,62156
20180521,62411
20180522,62907
20180523,63118
20180524,63326
20180525,63507
20180528,63946
20180529,64296
20180530,64534
20180531,64562
20180601,64981
20180604,65387
20180605,65839
20180606,66213
20180607,66617
20180608,66734
20180611,67019
20180612,67374
20180613,67724
20180614,68055
20180615,68485
20180618,68768
20180619,69089
20180620,69393
20180621,69729
20180622,70138
20180625,70465
20180626,71163
20180627,71710
20180628,72087
20180629,72620
20180702,72988
20180703,73466
20180704,73991
20180705,74346
20180706,74806
20180709,75221
20180710,75633
20180711,75907
20180712,76332
20180713,76947
20180717,77691
20180718,78213
20180719,78527
20180720,79127
20180723,79068
20180724,79671
20180725,80320
20180726,80846
20180727,81345
20180730,81459
20180731,82539
20180801,82639
20180802,83045
20180803,83245
20180806,83572
20180807,83975
20180808,84293
20180809,84554
20180810,84917
20180813,85010
20180814,85743
20180815,86221
20180816,86499
20180817,86802
20180820,87276
20180821,87615
20180822,87876
20180823,88165
20180824,88569
20180827,88961
20180828,89682
20180829,90069
20180830,90482
20180831,90806
20180903,91019
20180904,91452
20180905,91556
20180906,91920
20180907,92230
20180910,92438
20180911,92989
20180912,93233
20180913,93608
20180914,93969
20180918,94576
20180919,94949
20180920,95162
20180921,95366
20180925,95709
20180926,96359
20180927,96774
20180928,97475
20181001,98031
20181002,98364
20181003,98340
20181004,98340
20181005,98506
20181009,98760
20181010,99178
20181011,99269
20181012,99163
20181015,99211
20181016,99777
20181017,100382
20181018,100659
20181019,100721
20181022,100950
20181023,100850
20181024,101336
20181025,101298
20181026,101612
20181029,101984
20181030,102448
20181031,102781
20181101,103004
20181102,103319
20181105,103514
20181106,104013
20181107,104285
20181108,104766
20181109,104945
20181112,105416
20181113,105564
20181114,105947
20181115,106326
20181116,106512
20181119,106937
20181120,107048
20181121,107060
20181122,107496
20181126,108045
20181127,108677
20181128,108915
20181129,109130
20181130,109532
20181203,109984
20181204,110119
20181205,110348
20181206,110293
20181207,110621
20181210,110535
20181211,110896
20181212,111378
20181213,111747
20181214,112227
20181217,112735
20181218,113034
20181219,113193
20181220,113243
20181221,113081
20181225,112995
20181226,114030
20181227,115211
20181228,115764
20190104,116469
20190107,117376
20190108,117556
20190109,117964
20190110,118254
20190111,118673
20190115,118812
20190116,119505
20190117,119830
20190118,120258
20190121,120726
20190122,121538
20190123,121556
20190124,121928
20190125,122554
20190128,122864
20190129,123698
20190130,123900
20190131,124678
20190201,125457
20190204,125871
20190205,126336
20190206,126445
20190207,126444
20190208,126716
20190212,127248
20190213,127913
20190214,128470
20190215,128848
20190218,129492
20190219,130557
20190220,130935
20190221,131328
20190222,131846
20190225,132303
20190226,133002
20190227,133290
20190228,133597
20190301,133997
20190304,134366
20190305,134684
20190306,135023
20190307,135461
20190308,135786
20190311,136484
20190312,137235
20190313,137629
20190314,138208
20190315,138584
20190318,139130
20190319,139780
20190320,140243
20190322,140851
20190325,140914
20190326,141723
20190327,142545
20190328,142777
20190329,143218
20190401,143838
20190402,143945
20190403,144187
20190404,144340
20190405,144530
20190408,145147
20190409,145360
20190410,145753
20190411,146435
20190412,146841
20190415,147383
20190416,148306
20190417,148690
20190418,149346
20190419,149812
20190422,150665
20190423,151762
20190424,152593
20190425,153490
20190426,154387
20190507,155288
20190508,155400
20190509,155479
20190510,156273
20190513,157050
20190514,158045
20190515,158683
20190516,159626
20190517,160356
20190520,161275
20190521,162252
20190522,162707
20190523,163502
20190524,164577
20190527,165166
20190528,165976
20190529,166927
20190530,167158
20190531,167549
20190603,167879
20190604,168863
20190605,169874
20190606,170508
20190607,171284
20190610,172282
20190611,173240
20190612,173871
20190613,174004
20190614,175011
20190617,175300
20190618,176012
20190619,177138
20190620,178255
20190621,178471
20190624,178753
20190625,180032
20190626,180528
20190627,181060
20190628,182162
20190701,183497
20190702,184349
20190703,185134
20190704,185966
20190705,186430
20190708,186079
20190709,187142
20190710,187524
20190711,188782
20190712,188904
20190716,190185
20190717,190907
20190718,190942
20190719,191962
20190722,192208
20190723,193084
20190724,193509
20190725,194026
20190726,194654
20190729,195186
20190730,196330
20190731,197016
20190801,197428
20190802,199129
20190805,199653
20190806,200214
20190807,200810
20190808,201268
20190809,202292
20190813,202779
20190814,203500
20190815,204500
20190816,205180
20190819,205822
20190820,206751
20190821,206876
20190822,207212
20190823,207771
20190826,208430
20190827,208986
20190828,209764
20190829,210813
20190830,211634
20190902,212132
20190903,213046
20190904,213607
20190905,214664
20190906,215076
20190909,216755
20190910,217044
20190911,217738
20190912,218645
20190913,219373
20190917,220072
20190918,221018
20190919,222472
20190920,223155
20190924,224449
20190925,226270
20190926,227641
20190927,229045
20190930,230215
20191001,231072
20191002,232315
20191003,232012
20191004,232671
20191007,233522
20191008,234401
20191009,235253
20191010,235418
20191011,236083
20191015,237040
20191016,238091
20191017,238469
20191018,238645
20191021,239529
20191023,240867
20191024,241589
20191025,241874
20191028,242350
20191029,243519
20191030,245404
20191031,246685
20191101,248622
20191105,248955
20191106,248527
20191107,249299
20191108,248791
20191111,249890
20191112,249713
20191113,250013
20191114,251198
20191115,252505
20191118,254009
20191119,255386
20191120,257083
20191121,258117
20191122,258097
20191125,258964
20191126,260797
20191127,262220
20191128,262899
20191129,263277
20191202,265199
20191203,264942
20191204,266120
20191205,267317
20191206,267744
20191209,268419
20191210,269534
20191211,269862
20191212,271385
20191213,272099
20191216,273445
20191217,274843
20191218,275353
20191219,276705
20191220,277127
20191223,278318
20191224,280187
20191225,281790
20191226,283109
20191227,284321
20191230,285446
20200106,286686
20200107,287342
20200108,287104
20200109,288206
20200110,288756
20200114,289141
20200115,289545
20200116,290440
20200117,291556
20200120,292572
20200121,293552
20200122,294769
20200123,295750
20200124,297432
20200127,297709
20200128,298328
20200129,299472
20200130,300288
20200131,301818
20200203,301990
20200204,302435
20200205,303336
20200206,304006
20200207,305155
20200210,305363
20200212,305604
20200213,306151
20200214,306574
20200217,306916
20200218,307972
20200219,308402
20200220,308711
20200221,309337
20200225,308630
20200226,308028
20200227,306942
20200228,304224
20200302,303986
20200303,303091
20200304,303917
20200305,304868
20200306,303390
20200309,299425
20200310,297586
20200311,297688
20200312,293448
20200313,286875
20200316,283624
20200317,284369
20200318,281063
20200319,277088
20200323,280201
20200324,282791
20200325,286538
20200326,285717
20200327,285875
20200330,286694
20200331,286752
20200401,285464
20200402,285096
20200403,284525
20200406,284367
20200407,285105
20200408,285295
20200409,284843
20200410,285298
20200413,285114
20200414,284885
20200415,284575
20200416,284777
20200417,284616
20200420,284685
20200421,284484
20200422,284903
20200423,285488
20200424,285340
20200427,285674
20200428,285996
20200430,285940
20200501,285624
20200507,285294
20200508,285952
20200511,286076
20200512,286329
20200513,286041
20200514,285946
20200515,285642
20200518,285975
20200519,286111
20200520,286272
20200521,286663
20200522,286741
20200525,286733
20200526,287079
20200527,287439
20200528,287634
20200529,287677
20200601,287472
20200602,287833
20200603,287985
20200604,287487
20200605,287310
20200608,287705
20200609,288297
20200610,288180
20200611,288103
20200612,287972
20200615,287545
20200616,288014
20200617,288068
20200618,288255
20200619,288044
20200622,288123
20200623,288326
20200624,288356
20200625,288096
20200626,289318
20200629,289001
20200630,288730
20200701,288382
20200702,288689
20200703,288998
20200706,288806
20200707,288849
20200708,289157
20200709,289254
20200710,288944
20200713,288832
20200714,288795
20200715,288839
20200716,288766
20200717,288868
20200720,288499
20200721,288726
20200722,288553
20200727,288504
20200728,288506
20200729,288561
20200730,288466
20200731,288351
20200803,288408
20200804,288825
20200805,288807
20200806,288517
20200807,288454
20200811,288311
20200812,288180
20200813,288248
20200814,287817
20200817,287768
20200818,288046
20200819,288007
20200820,287755
20200821,287880
20200824,288064
20200825,288041
20200826,287656
20200827,287655
20200828,287398
20200831,287868
20200901,287635
20200902,287664
20200903,287778
20200904,287474
20200907,287836
20200908,288017
20200909,287974
20200910,287935
20200911,288066
20200914,288062
20200915,288052
20200916,288190
20200917,288319
20200918,288034
20200923,288207
20200924,288233
20200925,288534
20200928,288660
20200929,288810
20200930,288441
20201001,288697
20201002,288429
20201005,288652
20201006,288572
20201007,288069
20201008,288017
20201009,287672
20201012,287410
20201013,287356
20201014,287007
20201015,286692
20201016,286169
20201019,286172
20201020,285626
20201021,285521
20201022,285033
20201023,284765
20201026,284258
20201027,284368
20201028,284159
20201029,284252
20201030,283301
20201102,283685
20201104,284158
20201105,285425
20201106,285227
20201109,284892
20201110,284319
20201111,285023
20201112,284671
20201113,283864
20201116,283864
20201117,283706
20201118,283544
20201119,283661
20201120,283498
20201124,283526
20201125,283209
20201126,283197
20201127,283112
20201130,282077
20201201,282535
20201202,282090
20201203,281888
20201204,281860
20201207,281176
20201208,281569
20201209,281550
20201210,281340
20201211,281377
20201214,281293
20201215,280830
20201216,280633
20201217,280705
20201218,280229
20201221,279746
20201222,279398
20201223,279555
20201224,279665
20201225,279288
20201228,279937
20201229,280737
20201230,280612
20210104,279812
20210105,280260
20210106,279669
20210107,280319
20210108,280664
20210112,280538
20210113,280165
20210114,280048
20210115,279220
20210118,278819
20210119,278836
20210120,278630
20210121,278805
20210122,278485
20210125,278358
20210126,278300
20210127,278757
20210128,278660
20210129,278256
20210201,277708
20210202,277274
20210203,277970
20210204,277932
20210205,276753
20210208,277708
20210209,277290
20210210,277386
20210212,277970
20210215,277404
20210216,278380
20210217,276550
20210218,275715
20210219,275569
20210222,275314
20210224,275312
20210225,275305
20210226,273007
20210301,274171
20210302,274399
20210303,274528
20210304,273821
20210305,274427
20210308,273912
20210309,273583
20210310,273857
20210311,274553
20210312,274979
20210315,275390
20210316,276284
20210317,276427
20210318,276693
20210319,275805
20210322,276139
20210323,276085
20210324,275731
20210325,275616
20210326,276360
20210329,276614
20210330,276355
20210331,275644
20210401,275036
20210402,275221
20210405,275413
20210406,274803
20210407,275468
20210408,275053
20210409,275188
20210412,274739
20210413,274390
20210414,274646
20210415,274232
20210416,274623
20210419,274103
20210420,273495
20210421,272964
20210422,273472
20210423,273411
20210426,273057
20210427,271863
20210428,271617
20210430,271544
20210506,271996
20210507,271760
20210510,271810
20210511,271536
20210512,270574
20210513,269191
20210514,269737
20210517,269911
20210518,270301
20210519,270394
20210520,270294
20210521,270142
20210524,270340
20210525,270433
20210526,270257
20210527,270175
20210528,270052
20210531,269712
20210601,269561
20210602,269928
20210603,270318
20210604,270019